TimeMST,TemperatureF,Dew PointF,Humidity,Sea Level PressureIn,VisibilityMPH,Wind Direction,Wind SpeedMPH,Gust SpeedMPH,PrecipitationIn,Events,Conditions,WindDirDegrees,DateUTC
12:51 AM,63.0,37.9,40,29.83,10.0,East,8.1,-,N/A,,Mostly Cloudy,80,2013-03-04 07:51:00
1:51 AM,60.8,39.2,45,29.86,10.0,East,9.2,-,N/A,,Mostly Cloudy,80,2013-03-04 08:51:00
2:51 AM,59.0,39.0,48,29.81,10.0,SE,3.5,-,N/A,,Mostly Cloudy,130,2013-03-04 09:51:00
3:51 AM,57.9,37.9,47,29.82,10.0,Calm,Calm,-,N/A,,Mostly Cloudy,0,2013-03-04 10:51:00
4:51 AM,57.2,37.4,48,29.84,10.0,Calm,Calm,-,N/A,,Mostly Cloudy,0,2013-03-04 11:51:00
5:51 AM,55.0,39.0,55,29.83,10.0,East,4.6,-,N/A,,Partly Cloudy,80,2013-03-04 12:51:00
6:51 AM,55.0,39.0,55,29.84,10.0,Calm,Calm,-,N/A,,Scattered Clouds,0,2013-03-04 13:51:00
7:51 AM,55.9,36.0,47,29.87,10.0,Calm,Calm,-,N/A,,Scattered Clouds,0,2013-03-04 14:51:00
8:51 AM,62.1,32.0,32,29.88,10.0,SSW,4.6,-,N/A,,Partly Cloudy,200,2013-03-04 15:51:00
9:51 AM,64.0,30.0,28,29.89,10.0,West,4.6,-,N/A,,Partly Cloudy,260,2013-03-04 16:51:00
10:51 AM,68.0,30.0,24,29.89,10.0,WNW,5.8,-,N/A,,Scattered Clouds,290,2013-03-04 17:51:00
11:51 AM,71.6,32.0,23,29.94,10.0,West,19.6,24.2,N/A,,Scattered Clouds,280,2013-03-04 18:51:00
12:51 PM,73.4,33.8,23,29.93,10.0,West,13.8,21.9,N/A,,Scattered Clouds,270,2013-03-04 19:51:00
1:51 PM,73.9,32.0,21,29.88,10.0,West,15.0,-,N/A,,Scattered Clouds,270,2013-03-04 20:51:00
2:51 PM,75.0,33.1,22,29.87,10.0,West,16.1,-,N/A,,Scattered Clouds,270,2013-03-04 21:51:00
3:51 PM,75.0,32.0,21,29.88,10.0,West,6.9,18.4,N/A,,Scattered Clouds,270,2013-03-04 22:51:00
4:51 PM,75.0,30.0,19,29.88,10.0,West,4.6,-,N/A,,Partly Cloudy,260,2013-03-04 23:51:00
5:51 PM,73.9,30.0,20,29.90,10.0,West,3.5,-,N/A,,Partly Cloudy,270,2013-03-05 00:51:00
6:51 PM,72.0,32.0,23,29.92,10.0,Calm,Calm,-,N/A,,Partly Cloudy,0,2013-03-05 01:51:00
7:51 PM,69.8,33.8,27,29.98,10.0,Calm,Calm,-,N/A,,Partly Cloudy,0,2013-03-05 02:51:00
8:51 PM,69.1,34.0,27,29.96,10.0,Calm,Calm,-,N/A,,Clear,0,2013-03-05 03:51:00
9:51 PM,66.0,36.0,33,29.99,10.0,East,3.5,-,N/A,,Clear,100,2013-03-05 04:51:00
10:51 PM,64.0,36.0,35,30.00,10.0,East,6.9,-,N/A,,Clear,80,2013-03-05 05:51:00